Weather History for Meridian NAS, MS

Change the Weather History Date:

Monday, October 21, 2013

  Actual Average Record
Temperature  
Mean Temperature 54 °F -  
Max Temperature 66 °F 74 °F 88 °F (2004)
Min Temperature 42 °F 51 °F 33 °F (2011)
Degree Days  
Heating Degree Days 11    
Growing Degree Days 4 (Base 50)    
Moisture  
Dew Point 49 °F    
Average Humidity 81    
Maximum Humidity 93    
Minimum Humidity 56    
Precipitation  
Precipitation 0.00 in - - ()
Sea Level Pressure  
Sea Level Pressure 30.09 in    
Wind  
Wind Speed 1 mph (SE)    
Max Wind Speed 5 mph    
Max Gust Speed -    
Visibility 10 miles    
Events      
Averages and records for this station are not official NWS values.
T = Trace of Precipitation, MM = Missing Value Source: NWS Daily Summary

Daily Weather History Graph

Daily Weather History Graph

Search for Another Location

Airport:

Trip Planner

Search our weather history database for the weather conditions in past years. The results will help you decide how hot, cold, wet, or windy it might be!

Date:

Astronomy

Oct. 21, 2013 Rise Set
Actual Time 7:02 AM CDT 6:14 PM CDT
Civil Twilight 6:37 AM CDT 6:39 PM CDT
Nautical Twilight 6:09 AM CDT 7:07 PM CDT
Astronomical Twilight 5:40 AM CDT 7:36 PM CDT
Moon 8:14 PM CDT (10/21) 9:30 AM CDT (10/21)
Length of Visible Light 12h 01m
Length of Day
11h 11m
Waning Gibbous, 92% of the Moon is Illuminated
Oct 21
Waning Gibbous
Oct 26
Last Quarter
Nov 3
New
Nov 9
First Quarter
Nov 17
Full

Hourly Weather History & Observations

Time (CDT) Temp. Dew Point Humidity Pressure Visibility Wind Dir Wind Speed Gust Speed Precip Events Conditions
12:56 AM 45.0 °F 43.0 °F 93% 30.08 in 10.0 mi Calm Calm - N/A   Clear
1:56 AM 43.0 °F 41.0 °F 93% 30.09 in 10.0 mi Calm Calm - N/A   Clear
2:56 AM 43.0 °F 41.0 °F 93% 30.09 in 10.0 mi Calm Calm - N/A   Clear
3:56 AM 43.0 °F 41.0 °F 93% 30.09 in 10.0 mi Calm Calm - N/A   Clear
4:56 AM 43.0 °F 39.9 °F 89% 30.09 in 10.0 mi Calm Calm - N/A   Clear
5:56 AM 42.1 °F 39.9 °F 92% 30.10 in 10.0 mi Calm Calm - N/A   Clear
6:56 AM 42.1 °F 39.0 °F 89% 30.12 in 10.0 mi Calm Calm - N/A   Scattered Clouds
7:56 AM 43.0 °F 41.0 °F 93% 30.12 in 10.0 mi Calm Calm - N/A   Partly Cloudy
8:56 AM 51.1 °F 46.9 °F 86% 30.14 in 10.0 mi Calm Calm - N/A   Partly Cloudy
9:56 AM 59.0 °F 48.9 °F 69% 30.13 in 10.0 mi ENE 4.6 mph - N/A   Clear
10:56 AM 63.0 °F 50.0 °F 63% 30.13 in 10.0 mi SSE 3.5 mph - N/A   Partly Cloudy
11:56 AM 64.9 °F 48.9 °F 56% 30.12 in 10.0 mi South 4.6 mph - N/A   Scattered Clouds
12:56 PM 66.0 °F 51.1 °F 59% 30.11 in 10.0 mi Calm Calm - N/A   Mostly Cloudy
1:56 PM 66.0 °F 52.0 °F 60% 30.09 in 10.0 mi Calm Calm - N/A   Mostly Cloudy
2:56 PM 66.0 °F 52.0 °F 60% 30.07 in 10.0 mi Calm Calm - N/A   Overcast
3:56 PM 66.0 °F 53.1 °F 63% 30.06 in 10.0 mi Calm Calm - N/A   Overcast
4:56 PM 64.9 °F 55.9 °F 73% 30.06 in 10.0 mi Calm Calm - N/A   Overcast
5:56 PM 62.1 °F 55.9 °F 80% 30.05 in 10.0 mi Calm Calm - N/A   Overcast
6:56 PM 60.1 °F 57.0 °F 90% 30.07 in 10.0 mi SE 3.5 mph - N/A   Overcast
7:56 PM 60.1 °F 57.0 °F 90% 30.04 in 10.0 mi East 4.6 mph - N/A   Mostly Cloudy
8:56 PM 59.0 °F 55.9 °F 90% 30.05 in 10.0 mi SSE 3.5 mph - N/A   Overcast
9:56 PM 60.1 °F 55.9 °F 86% 30.05 in 10.0 mi Calm Calm - N/A   Mostly Cloudy
10:56 PM 59.0 °F 55.9 °F 90% 30.05 in 10.0 mi Calm Calm - N/A   Mostly Cloudy
11:56 PM 59.0 °F 55.9 °F 90% 30.06 in 10.0 mi NW 4.6 mph - N/A   Overcast